Location: Unspecified
(43.4680°N, 87.1740°E)
Time: 20:41:07
(UTC+00:00)

COSMOS 2455 - Pass Details

Date: 17 April 2021
Orbit: 902 x 907 km, 67.1° (Epoch: 12 May)

Event Time Altitude Azimuth Distance (km) Brightness Sun altitude
Exits shadow 16:06:14 31° 56° (ENE) 1,543 4.0 -28.8°
Drops below altitude 10° 16:09:26 10° 40° (NE) 2,596 5.4 -29.2°
Sets 16:12:01 0° 35° (NE) 3,542 6.2 -29.4°
